TimeCST,TemperatureF,Dew PointF,Humidity,Sea Level PressureIn,VisibilityMPH,Wind Direction,Wind SpeedMPH,Gust SpeedMPH,PrecipitationIn,Events,Conditions,WindDirDegrees,DateUTC
12:16 AM,3.2,-0.4,85,30.15,10.0,NW,6.9,-,N/A,,Clear,310,2013-02-15 06:16:00
12:36 AM,3.2,-0.4,85,30.15,10.0,WNW,5.8,-,N/A,,Clear,300,2013-02-15 06:36:00
12:56 AM,3.2,-0.4,85,30.15,10.0,WNW,5.8,-,N/A,,Clear,300,2013-02-15 06:56:00
1:16 AM,3.2,-0.4,85,30.16,10.0,WNW,5.8,-,N/A,,Clear,290,2013-02-15 07:16:00
1:36 AM,3.2,-0.4,85,30.16,10.0,WNW,5.8,-,N/A,,Clear,290,2013-02-15 07:36:00
1:56 AM,3.2,-0.4,85,30.16,10.0,WNW,5.8,-,N/A,,Clear,300,2013-02-15 07:56:00
2:16 AM,1.4,-0.4,92,30.16,10.0,WNW,5.8,-,N/A,,Clear,300,2013-02-15 08:16:00
2:36 AM,1.4,-0.4,92,30.17,10.0,WNW,6.9,-,N/A,,Clear,290,2013-02-15 08:36:00
2:56 AM,1.4,-0.4,92,30.17,10.0,WNW,4.6,-,N/A,,Clear,290,2013-02-15 08:56:00
3:16 AM,1.4,-0.4,92,30.17,10.0,WNW,3.5,-,N/A,,Clear,290,2013-02-15 09:16:00
3:36 AM,1.4,-0.4,92,30.17,10.0,WNW,5.8,-,N/A,,Clear,300,2013-02-15 09:36:00
3:56 AM,1.4,-0.4,92,30.17,10.0,WNW,6.9,-,N/A,,Clear,300,2013-02-15 09:56:00
4:16 AM,1.4,-2.2,85,30.17,10.0,WNW,6.9,-,N/A,,Clear,300,2013-02-15 10:16:00
4:36 AM,1.4,-2.2,85,30.17,10.0,WNW,4.6,-,N/A,,Clear,290,2013-02-15 10:36:00
4:56 AM,-0.4,-2.2,92,30.18,10.0,WNW,4.6,-,N/A,,Clear,290,2013-02-15 10:56:00
5:16 AM,-0.4,-2.2,92,30.18,10.0,WNW,5.8,-,N/A,,Clear,300,2013-02-15 11:16:00
5:36 AM,-0.4,-2.2,92,30.19,10.0,WNW,4.6,-,N/A,,Clear,300,2013-02-15 11:36:00
5:56 AM,-0.4,-4.0,85,30.19,10.0,WNW,4.6,-,N/A,,Clear,290,2013-02-15 11:56:00
6:16 AM,-2.2,-4.0,92,30.20,10.0,WNW,4.6,-,N/A,,Clear,300,2013-02-15 12:16:00
6:36 AM,-0.4,-4.0,85,30.20,10.0,NW,4.6,-,N/A,,Clear,310,2013-02-15 12:36:00
6:56 AM,-0.4,-4.0,85,30.21,10.0,Calm,Calm,-,N/A,,Clear,0,2013-02-15 12:56:00
7:16 AM,-2.2,-5.8,85,30.21,10.0,WNW,3.5,-,N/A,,Clear,290,2013-02-15 13:16:00
7:36 AM,-2.2,-5.8,85,30.22,10.0,WNW,5.8,-,N/A,,Clear,300,2013-02-15 13:36:00
7:56 AM,-2.2,-5.8,85,30.23,10.0,WNW,4.6,-,N/A,,Clear,300,2013-02-15 13:56:00
8:16 AM,-2.2,-5.8,85,30.23,10.0,WNW,4.6,-,N/A,,Clear,300,2013-02-15 14:16:00
8:36 AM,-0.4,-4.0,85,30.24,10.0,NW,5.8,-,N/A,,Clear,310,2013-02-15 14:36:00
8:56 AM,-0.4,-4.0,85,30.25,7.0,WNW,5.8,-,N/A,,Clear,300,2013-02-15 14:56:00
9:15 AM,1.4,-4.0,78,30.24,10.0,WNW,3.5,-,N/A,,Clear,300,2013-02-15 15:15:00
9:35 AM,1.4,-4.0,78,30.24,10.0,WNW,6.9,-,N/A,,Clear,300,2013-02-15 15:35:00
9:56 AM,3.2,-2.2,78,30.24,10.0,NW,3.5,-,N/A,,Clear,320,2013-02-15 15:56:00
10:16 AM,3.2,-2.2,78,30.25,10.0,West,8.1,-,N/A,,Clear,280,2013-02-15 16:16:00
10:36 AM,5.0,-2.2,72,30.25,10.0,NW,4.6,-,N/A,,Clear,320,2013-02-15 16:36:00
10:56 AM,6.8,-2.2,67,30.25,10.0,NW,6.9,-,N/A,,Clear,310,2013-02-15 16:56:00
11:15 AM,6.8,-2.2,67,30.25,10.0,WNW,6.9,-,N/A,,Clear,300,2013-02-15 17:15:00
11:56 AM,8.6,-0.4,67,30.25,10.0,NW,8.1,-,N/A,,Clear,310,2013-02-15 17:56:00
12:16 PM,10.4,-0.4,62,30.25,10.0,WNW,9.2,-,N/A,,Clear,300,2013-02-15 18:16:00
12:36 PM,10.4,-0.4,62,30.24,10.0,WNW,8.1,-,N/A,,Clear,290,2013-02-15 18:36:00
12:56 PM,12.2,-0.4,57,30.24,10.0,WNW,8.1,-,N/A,,Clear,290,2013-02-15 18:56:00
1:15 PM,12.2,-0.4,57,30.24,10.0,WNW,10.4,-,N/A,,Clear,300,2013-02-15 19:15:00
1:36 PM,12.2,-0.4,57,30.24,10.0,WNW,12.7,-,N/A,,Clear,300,2013-02-15 19:36:00
1:56 PM,12.2,-0.4,57,30.24,10.0,WNW,10.4,17.3,N/A,,Clear,290,2013-02-15 19:56:00
2:16 PM,12.2,-0.4,57,30.23,7.0,NW,10.4,-,N/A,,Clear,320,2013-02-15 20:16:00
2:36 PM,12.2,-0.4,57,30.23,10.0,NNW,6.9,-,N/A,,Scattered Clouds,330,2013-02-15 20:36:00
2:56 PM,12.2,-0.4,57,30.23,10.0,NW,8.1,-,N/A,,Scattered Clouds,320,2013-02-15 20:56:00
3:16 PM,12.2,-0.4,57,30.22,10.0,NW,6.9,-,N/A,,Scattered Clouds,310,2013-02-15 21:16:00
3:36 PM,12.2,1.4,62,30.23,10.0,WNW,6.9,-,N/A,,Scattered Clouds,290,2013-02-15 21:36:00
3:56 PM,12.2,1.4,62,30.23,10.0,WNW,9.2,-,N/A,,Clear,300,2013-02-15 21:56:00
4:16 PM,12.2,-0.4,57,30.22,10.0,WNW,9.2,-,N/A,,Clear,290,2013-02-15 22:16:00
4:36 PM,12.2,-0.4,57,30.22,10.0,NW,5.8,-,N/A,,Clear,310,2013-02-15 22:36:00
4:56 PM,10.4,1.4,67,30.22,10.0,NW,8.1,-,N/A,,Clear,310,2013-02-15 22:56:00
5:16 PM,10.4,1.4,67,30.23,10.0,WNW,8.1,-,N/A,,Clear,300,2013-02-15 23:16:00
5:36 PM,10.4,1.4,67,30.23,10.0,NW,4.6,-,N/A,,Scattered Clouds,310,2013-02-15 23:36:00
5:56 PM,8.6,-0.4,67,30.23,10.0,West,5.8,-,N/A,,Scattered Clouds,270,2013-02-15 23:56:00
6:16 PM,8.6,-0.4,67,30.23,10.0,WNW,3.5,-,N/A,,Clear,290,2013-02-16 00:16:00
6:36 PM,6.8,-0.4,72,30.22,10.0,WNW,4.6,-,N/A,,Mostly Cloudy,290,2013-02-16 00:36:00
6:56 PM,8.6,1.4,73,30.22,10.0,WNW,4.6,-,N/A,,Overcast,290,2013-02-16 00:56:00
7:16 PM,8.6,1.4,73,30.21,10.0,WNW,4.6,-,N/A,,Overcast,290,2013-02-16 01:16:00
7:36 PM,8.6,1.4,73,30.20,10.0,West,4.6,-,N/A,,Overcast,270,2013-02-16 01:36:00
7:56 PM,8.6,1.4,73,30.20,10.0,West,6.9,-,N/A,,Overcast,280,2013-02-16 01:56:00
8:16 PM,8.6,1.4,73,30.20,10.0,WNW,5.8,-,N/A,,Overcast,290,2013-02-16 02:16:00
8:36 PM,8.6,1.4,73,30.20,10.0,WNW,5.8,-,N/A,,Overcast,290,2013-02-16 02:36:00
8:55 PM,8.6,1.4,73,30.20,10.0,WNW,6.9,-,N/A,,Overcast,300,2013-02-16 02:55:00
9:16 PM,8.6,1.4,73,30.20,10.0,WNW,5.8,-,N/A,,Overcast,300,2013-02-16 03:16:00
9:36 PM,8.6,1.4,73,30.20,10.0,WNW,6.9,-,N/A,,Overcast,300,2013-02-16 03:36:00
9:55 PM,8.6,3.2,79,30.19,10.0,WNW,5.8,-,N/A,,Overcast,290,2013-02-16 03:55:00
10:16 PM,8.6,1.4,73,30.19,10.0,NW,4.6,-,N/A,,Overcast,310,2013-02-16 04:16:00
10:36 PM,8.6,1.4,73,30.19,10.0,WNW,5.8,-,N/A,,Overcast,290,2013-02-16 04:36:00
10:55 PM,8.6,1.4,73,30.19,10.0,Calm,Calm,-,N/A,,Overcast,0,2013-02-16 04:55:00
11:15 PM,8.6,3.2,79,30.18,7.0,WNW,5.8,-,N/A,Snow,Light Snow,290,2013-02-16 05:15:00
11:35 PM,8.6,1.4,73,30.17,10.0,NW,6.9,-,N/A,,Overcast,310,2013-02-16 05:35:00
11:55 PM,8.6,1.4,73,30.17,7.0,NW,5.8,-,N/A,Snow,Light Snow,310,2013-02-16 05:55:00